Home > Weather > El Aaiún > Past weeks

Past Weather in El Aaiún, Western Sahara — Yesterday and Last 2 Weeks

Now
72 °F

Scattered clouds.


Feels Like: 71 °F
Forecast: 71 / 82 °F
Wind: 18 mph from North

Location: Laayoune/Hassan Isl

Current Time: Jul 30, 2016 at 9:43:08 PM

Latest Report: Jul 30, 2016 at 9:00 PM


Visibility: N/A

Pressure: 29.95 "Hg

Humidity: 83%

Dew Point: 66 °F

Location of El AaiúnLocation

Past Weather in El Aaiún — Graph

°F

El Aaiún Temperature Yesterday

Maximum temperature yesterday: 84 °F (at 2:00 PM)
Minimum temperature yesterday: 70 °F (at 12:00 AM)
Average temperature yesterday: 74 °F

High & Low Weather Summary for the Past Weeks

 TemperatureHumidityPressure
High102 °F (Jul 20, 3:00 PM)94% (Jul 16, 7:00 AM)30.04 "Hg (Jul 16, 7:00 AM)
Low66 °F (Jul 16, 7:00 PM)26% (Jul 20, 3:00 PM)29.83 "Hg (Jul 19, 5:00 PM)
Average78 °F66%29.92 "Hg
* Reported Jul 15 9:00 PM — Jul 30 8:00 PM, El Aaiún, Weather by CustomWeather, © 2016

Note: Actual official high and low records may vary slightly from our data, if they occured in-between our weather recording intervals... More about our weather records

Advertising

El Aaiún Weather History for the Previous 24 Hours

Scroll right to see more
 ConditionsComfort  
Time TempWeatherWind HumidityBarometerVisibility
8:00 PM
Sat, Jul 30
75 °FPassing clouds.25 mph74%29.92 "HgN/A
7:00 PM79 °FSunny.25 mph65%29.92 "Hg10 mi
6:00 PM82 °FSunny.25 mph58%29.92 "Hg10 mi
5:00 PM84 °FClear.23 mph55%29.92 "Hg4 mi
4:00 PM86 °FClear.28 mph49%29.89 "Hg4 mi
3:00 PM88 °FClear.25 mph46%29.92 "Hg5 mi
2:00 PM86 °FClear.23 mph49%29.92 "Hg5 mi
1:00 PM82 °FClear.28 mph58%29.95 "Hg5 mi
12:00 PM79 °FClear.25 mph61%29.95 "Hg5 mi
11:00 AM77 °FPartly sunny.25 mph65%29.95 "HgN/A
10:30 AM75 °FBroken clouds.23 mph69%29.98 "HgN/A
10:00 AM73 °FPartly sunny.22 mph78%29.98 "HgN/A
9:00 AM72 °FOvercast.20 mph78%29.98 "HgN/A
8:00 AM70 °FOvercast.N/A83%29.95 "HgN/A
7:00 AM70 °FOvercast.23 mph83%29.92 "Hg5 mi
4:00 AM70 °FPassing clouds.26 mph83%29.95 "Hg5 mi
3:00 AM70 °FPassing clouds.26 mph83%29.95 "Hg5 mi
2:00 AM70 °FPartly cloudy.16 mph83%29.98 "Hg5 mi
1:00 AM70 °FPartly cloudy.28 mph83%29.95 "Hg5 mi
12:00 AM70 °FClear.26 mph83%29.98 "Hg10 mi
11:00 PM
Fri, Jul 29
72 °FClear.23 mph73%29.98 "Hg10 mi
10:00 PM72 °FClear.29 mph73%29.92 "Hg5 mi
9:00 PM73 °FClear.23 mph69%29.92 "Hg5 mi
Weather by CustomWeather, © 2016

See weather overviewHow to use our weather pages